GW3504 Weather Reports


Display with metric or nautical units.
time (UTC)temp
F
wind
direction
speed
MPH
gust
MPH
rain 1hr
in
rain 24hr
in
rain mn
in
humidity
%
barometer
mb
20260510225527 68 360 2.0 5.0 0.00 0.00 0.00 30 1021.8
20260510225027 68 36 0.0 3.0 0.00 0.00 0.00 30 1021.9
20260510224536 68 0 0.0 6.0 0.00 0.00 0.00 28 1021.9
20260510224026 68 0 0.0 9.0 0.00 0.00 0.00 30 1021.8
20260510223523 68 17 2.0 10.0 0.00 0.00 0.00 30 1021.9
20260510223039 68 11 4.0 10.0 0.00 0.00 0.00 28 1021.9
20260510222526 69 9 2.0 8.0 0.00 0.00 0.00 29 1021.8
20260510222023 69 0 1.0 8.0 0.00 0.00 0.00 28 1021.9
20260510221542 68 360 2.0 8.0 0.00 0.00 0.00 29 1021.9
20260510221026 68 38 2.0 10.0 0.00 0.00 0.00 28 1021.8
20260510220529 68 5 2.0 11.0 0.00 0.00 0.00 28 1021.8
20260510220036 69 41 5.0 11.0 0.00 0.00 0.00 28 1021.8
20260510215525 69 352 2.0 9.0 0.00 0.00 0.00 30 1021.7
20260510215024 69 327 4.0 9.0 0.00 0.00 0.00 29 1021.6
20260510214535 69 263 1.0 9.0 0.00 0.00 0.00 29 1021.6
20260510214036 69 0 2.0 5.0 0.00 0.00 0.00 30 1021.6
20260510213523 69 54 1.0 11.0 0.00 0.00 0.00 30 1021.7
20260510213035 69 23 2.0 11.0 0.00 0.00 0.00 31 1021.6
20260510212524 69 18 4.0 11.0 0.00 0.00 0.00 28 1021.7
20260510212024 69 46 3.0 10.0 0.00 0.00 0.00 32 1021.7
20260510211536 69 5 3.0 10.0 0.00 0.00 0.00 27 1021.8
20260510211024 69 92 2.0 6.0 0.00 0.00 0.00 29 1021.8
20260510210522 68 320 3.0 12.0 0.00 0.00 0.00 32 1021.7
20260510210039 68 0 4.0 12.0 0.00 0.00 0.00 30 1021.9
20260510205523 67 5 2.0 10.0 0.00 0.00 0.00 32 1021.8
20260510205024 68 45 3.0 12.0 0.00 0.00 0.00 30 1022.0
20260510204541 68 36 3.0 12.0 0.00 0.00 0.00 31 1022.0
20260510204024 68 200 2.0 14.0 0.00 0.00 0.00 33 1021.9
20260510203522 68 350 5.0 14.0 0.00 0.00 0.00 31 1022.1
20260510203036 67 336 3.0 11.0 0.00 0.00 0.00 32 1022.1
20260510202523 67 5 5.0 11.0 0.00 0.00 0.00 31 1022.1
20260510202023 67 15 4.0 10.0 0.00 0.00 0.00 32 1022.3
20260510201534 67 352 5.0 10.0 0.00 0.00 0.00 31 1022.3
20260510201022 66 0 3.0 7.0 0.00 0.00 0.00 32 1022.3
20260510200523 66 25 2.0 8.0 0.00 0.00 0.00 32 1022.4
20260510200039 66 0 1.0 10.0 0.00 0.00 0.00 33 1022.5
20260510195524 66 5 4.0 10.0 0.00 0.00 0.00 32 1022.5
20260510195022 66 0 3.0 10.0 0.00 0.00 0.00 32 1022.8
20260510194550 65 74 3.0 8.0 0.00 0.00 0.00 32 1022.7
20260510194024 66 34 3.0 8.0 0.00 0.00 0.00 32 1022.6
20260510193524 66 111 1.0 8.0 0.00 0.00 0.00 33 1022.7
20260510193035 66 82 3.0 8.0 0.00 0.00 0.00 31 1022.8
20260510192525 66 38 2.0 10.0 0.00 0.00 0.00 32 1022.7
20260510192023 66 0 3.0 10.0 0.00 0.00 0.00 34 1022.9
20260510191537 66 14 2.0 6.0 0.00 0.00 0.00 33 1023.0
20260510191024 65 27 1.0 6.0 0.00 0.00 0.00 33 1023.0
20260510190523 65 352 2.0 10.0 0.00 0.00 0.00 34 1022.9
20260510190046 65 0 2.0 15.0 0.00 0.00 0.00 35 1022.9
20260510185524 64 5 4.0 15.0 0.00 0.00 0.00 33 1022.9
20260510185023 65 5 6.0 15.0 0.00 0.00 0.00 34 1022.9
20260510184536 64 58 3.0 9.0 0.00 0.00 0.00 33 1023.0
20260510184022 65 70 0.0 10.0 0.00 0.00 0.00 33 1023.0
20260510183524 65 72 3.0 10.0 0.00 0.00 0.00 34 1022.9
20260510183036 65 346 2.0 7.0 0.00 0.00 0.00 34 1022.7
20260510182524 65 46 1.0 6.0 0.00 0.00 0.00 34 1022.7
20260510182023 65 0 2.0 9.0 0.00 0.00 0.00 33 1022.7
20260510181535 64 51 3.0 11.0 0.00 0.00 0.00 33 1022.8
20260510181023 64 111 3.0 11.0 0.00 0.00 0.00 35 1022.8
20260510180524 64 5 3.0 9.0 0.00 0.00 0.00 34 1022.8
20260510180035 64 0 2.0 9.0 0.00 0.00 0.00 36 1022.7
20260510175522 63 36 2.0 6.0 0.00 0.00 0.00 37 1022.8
20260510175021 63 31 2.0 6.0 0.00 0.00 0.00 35 1022.9
20260510174538 63 351 1.0 5.0 0.00 0.00 0.00 38 1023.0
20260510174022 63 9 0.0 8.0 0.00 0.00 0.00 39 1023.1
20260510173524 63 15 3.0 8.0 0.00 0.00 0.00 37 1023.1
20260510173038 63 37 1.0 8.0 0.00 0.00 0.00 37 1023.1
20260510172524 63 360 2.0 8.0 0.00 0.00 0.00 37 1023.0
20260510172022 63 35 1.0 5.0 0.00 0.00 0.00 40 1023.1
20260510171538 62 331 2.0 5.0 0.00 0.00 0.00 38 1023.0
20260510171020 62 38 2.0 5.0 0.00 0.00 0.00 37 1022.9
20260510170522 62 16 0.0 9.0 0.00 0.00 0.00 39 1023.1
20260510170035 62 44 2.0 9.0 0.00 0.00 0.00 37 1022.9
20260510165523 62 336 2.0 8.0 0.00 0.00 0.00 37 1022.9
20260510165026 62 55 2.0 10.0 0.00 0.00 0.00 38 1022.8
20260510164534 62 57 1.0 11.0 0.00 0.00 0.00 37 1022.9
20260510164023 62 5 4.0 12.0 0.00 0.00 0.00 36 1022.8
20260510163522 62 15 4.0 12.0 0.00 0.00 0.00 37 1022.8
20260510163035 62 37 2.0 9.0 0.00 0.00 0.00 36 1022.7
20260510162522 63 39 2.0 8.0 0.00 0.00 0.00 36 1022.6
20260510162023 63 0 2.0 9.0 0.00 0.00 0.00 37 1022.4
20260510161534 62 0 2.0 9.0 0.00 0.00 0.00 39 1022.4
20260510161028 61 10 3.0 10.0 0.00 0.00 0.00 39 1022.6
20260510160523 61 35 3.0 10.0 0.00 0.00 0.00 39 1022.6
20260510160043 61 59 3.0 7.0 0.00 0.00 0.00 39 1022.7
20260510155522 61 32 1.0 8.0 0.00 0.00 0.00 39 1022.8
20260510155022 60 0 2.0 8.0 0.00 0.00 0.00 39 1022.8
20260510154537 60 22 3.0 7.0 0.00 0.00 0.00 41 1022.9
20260510154025 59 48 1.0 9.0 0.00 0.00 0.00 42 1022.9
20260510153523 59 337 2.0 9.0 0.00 0.00 0.00 40 1022.7
20260510153036 59 41 3.0 9.0 0.00 0.00 0.00 40 1022.5
20260510152524 60 0 0.0 8.0 0.00 0.00 0.00 42 1022.5
20260510152022 59 37 2.0 9.0 0.00 0.00 0.00 40 1022.4
20260510151535 59 56 1.0 10.0 0.00 0.00 0.00 41 1022.4
20260510151026 59 70 2.0 10.0 0.00 0.00 0.00 41 1022.1
20260510150526 59 30 2.0 10.0 0.00 0.00 0.00 42 1022.1
20260510150041 59 45 2.0 10.0 0.00 0.00 0.00 41 1022.1
20260510145528 58 360 4.0 9.0 0.00 0.00 0.00 41 1022.0
20260510145026 59 15 1.0 7.0 0.00 0.00 0.00 43 1022.0
20260510144600 58 0 1.0 9.0 0.00 0.00 0.00 44 1022.0
20260510144024 58 136 1.0 9.0 0.00 0.00 0.00 42 1022.1
20260510143526 58 315 3.0 12.0 0.00 0.00 0.00 41 1022.0
20260510143036 58 29 3.0 12.0 0.00 0.00 0.00 41 1022.1
20260510142525 58 88 2.0 9.0 0.00 0.00 0.00 43 1022.0
20260510142026 58 45 3.0 9.0 0.00 0.00 0.00 42 1022.1
20260510141538 58 0 1.0 10.0 0.00 0.00 0.00 43 1022.0
20260510141024 58 0 3.0 10.0 0.00 0.00 0.00 42 1021.8
20260510140532 58 0 0.0 9.0 0.00 0.00 0.00 43 1022.0
20260510140035 57 0 1.0 9.0 0.00 0.00 0.00 42 1022.0
20260510135524 57 0 2.0 9.0 0.00 0.00 0.00 43 1021.9
20260510135023 57 55 3.0 9.0 0.00 0.00 0.00 43 1021.9
20260510134539 57 37 1.0 8.0 0.00 0.00 0.00 44 1022.0
20260510134022 57 78 1.0 8.0 0.00 0.00 0.00 43 1021.9
20260510133528 57 66 1.0 7.0 0.00 0.00 0.00 43 1021.9
20260510133045 57 26 2.0 8.0 0.00 0.00 0.00 43 1021.8
20260510132527 57 0 1.0 8.0 0.00 0.00 0.00 43 1021.7
20260510132025 57 45 2.0 10.0 0.00 0.00 0.00 43 1021.6
20260510131537 57 0 0.0 10.0 0.00 0.00 0.00 44 1021.6
20260510131027 56 41 1.0 9.0 0.00 0.00 0.00 43 1021.5
20260510130526 56 348 2.0 9.0 0.00 0.00 0.00 44 1021.5
20260510130037 56 51 1.0 9.0 0.00 0.00 0.00 43 1021.5
20260510125525 56 94 4.0 10.0 0.00 0.00 0.00 43 1021.3
20260510125023 56 15 2.0 10.0 0.00 0.00 0.00 44 1021.4
20260510124541 56 5 3.0 8.0 0.00 0.00 0.00 44 1021.2
20260510124025 56 5 1.0 9.0 0.00 0.00 0.00 44 1021.0
20260510123525 56 26 3.0 9.0 0.00 0.00 0.00 44 1021.0
20260510123044 56 0 4.0 9.0 0.00 0.00 0.00 43 1020.9
20260510122523 56 23 2.0 9.0 0.00 0.00 0.00 44 1020.6
20260510122025 56 44 3.0 9.0 0.00 0.00 0.00 44 1020.5
20260510121541 55 23 2.0 8.0 0.00 0.00 0.00 44 1020.3
20260510121026 55 36 2.0 11.0 0.00 0.00 0.00 45 1020.3
20260510120522 55 54 1.0 11.0 0.00 0.00 0.00 45 1020.1
20260510120036 55 38 2.0 11.0 0.00 0.00 0.00 45 1020.0
20260510115526 55 22 1.0 9.0 0.00 0.00 0.00 45 1020.0
20260510115026 55 26 2.0 9.0 0.00 0.00 0.00 45 1020.0
20260510114600 55 46 2.0 9.0 0.00 0.00 0.00 45 1019.6
20260510114026 55 355 2.0 9.0 0.00 0.00 0.00 45 1019.5
20260510113528 56 0 1.0 9.0 0.00 0.00 0.00 45 1019.4
20260510113050 56 26 2.0 8.0 0.00 0.00 0.00 45 1019.4
20260510112525 56 11 2.0 8.0 0.00 0.00 0.00 45 1019.3
20260510112025 56 0 2.0 8.0 0.00 0.00 0.00 45 1019.1
20260510111538 56 22 2.0 9.0 0.00 0.00 0.00 46 1019.2
20260510111025 56 26 1.0 9.0 0.00 0.00 0.00 46 1019.2
20260510110528 56 28 3.0 10.0 0.00 0.00 0.00 47 1019.1
20260510110040 56 0 2.0 10.0 0.00 0.00 0.00 47 1019.2
20260510105525 57 355 3.0 12.0 0.00 0.01 0.00 47 1019.2
20260510105024 57 29 2.0 12.0 0.00 0.01 0.00 47 1018.8
20260510104543 57 35 3.0 12.0 0.00 0.01 0.00 47 1018.8
20260510104024 57 28 3.0 10.0 0.00 0.01 0.00 47 1018.7
20260510103526 57 13 2.0 10.0 0.00 0.01 0.00 46 1018.9
20260510103038 58 0 1.0 8.0 0.00 0.01 0.00 46 1018.8
20260510102526 58 28 1.0 9.0 0.00 0.01 0.00 45 1018.8
20260510102024 58 329 3.0 9.0 0.00 0.01 0.00 45 1018.6
20260510101537 58 0 1.0 9.0 0.00 0.01 0.00 45 1018.4
20260510101029 58 80 3.0 10.0 0.00 0.01 0.00 45 1018.6
20260510100523 58 17 3.0 10.0 0.00 0.01 0.00 45 1018.5
20260510100050 58 28 4.0 10.0 0.00 0.01 0.00 46 1018.4
20260510095525 59 57 2.0 10.0 0.00 0.01 0.00 47 1018.3
20260510095025 59 360 3.0 10.0 0.00 0.01 0.00 47 1018.2
20260510094540 59 0 2.0 10.0 0.00 0.01 0.00 48 1018.2
20260510094023 59 55 1.0 10.0 0.00 0.01 0.00 48 1018.1
20260510093526 59 35 3.0 10.0 0.00 0.01 0.00 47 1017.8
20260510093035 59 5 3.0 11.0 0.00 0.01 0.00 47 1017.8
20260510092526 60 34 1.0 11.0 0.00 0.01 0.00 48 1017.8
20260510092024 60 5 3.0 11.0 0.00 0.01 0.00 48 1017.8
20260510091537 60 68 1.0 10.0 0.00 0.01 0.00 48 1017.9
20260510091026 60 41 4.0 10.0 0.00 0.01 0.00 49 1017.9
20260510090523 60 55 4.0 12.0 0.00 0.01 0.00 50 1017.8
20260510090035 60 47 4.0 12.0 0.00 0.01 0.00 51 1017.6
20260510085523 60 62 2.0 9.0 0.00 0.01 0.00 52 1017.5
20260510085023 60 55 2.0 12.0 0.00 0.01 0.00 53 1017.3
20260510084536 60 352 3.0 12.0 0.00 0.01 0.00 54 1017.2
20260510084023 60 32 3.0 12.0 0.00 0.01 0.00 54 1017.1
20260510083523 60 50 4.0 9.0 0.00 0.01 0.00 54 1017.1
20260510083042 60 40 2.0 10.0 0.00 0.01 0.00 54 1017.1
20260510082527 60 13 3.0 10.0 0.00 0.01 0.00 53 1017.1
20260510082021 61 0 3.0 10.0 0.00 0.01 0.00 53 1016.9
20260510081536 61 22 3.0 9.0 0.00 0.01 0.00 55 1017.0
20260510081022 61 56 2.0 9.0 0.00 0.01 0.00 56 1016.6
20260510080522 61 355 2.0 8.0 0.00 0.01 0.00 58 1016.6
20260510080035 61 0 1.0 8.0 0.00 0.01 0.00 59 1016.6
20260510075525 61 0 3.0 7.0 0.00 0.01 0.00 59 1016.6
20260510075023 61 0 0.0 8.0 0.00 0.01 0.00 60 1016.4
20260510074543 62 24 1.0 8.0 0.00 0.01 0.00 59 1016.4
20260510074026 62 28 2.0 8.0 0.00 0.01 0.00 59 1016.3
20260510073522 62 60 1.0 8.0 0.00 0.01 0.00 60 1016.1
20260510073037 62 53 1.0 6.0 0.00 0.01 0.00 60 1016.3
20260510072524 62 33 1.0 6.0 0.00 0.01 0.00 60 1016.3
20260510072025 62 42 2.0 6.0 0.00 0.01 0.00 60 1016.4
20260510071539 62 49 1.0 7.0 0.00 0.01 0.00 60 1016.4
20260510071020 62 0 1.0 7.0 0.00 0.01 0.00 60 1016.3
20260510070523 62 0 1.0 5.0 0.00 0.01 0.00 60 1016.1
20260510070052 62 0 0.0 3.0 0.00 0.01 0.00 60 1016.0
20260510065524 62 35 0.0 3.0 0.00 0.01 0.00 60 1015.9
20260510065021 62 0 0.0 4.0 0.00 0.01 0.00 59 1015.9
20260510064534 63 0 0.0 7.0 0.00 0.01 0.00 59 1015.8
20260510064023 63 10 1.0 7.0 0.00 0.01 0.00 58 1015.8
20260510063523 63 32 1.0 5.0 0.00 0.01 0.00 57 1015.6
20260510063042 63 0 0.0 6.0 0.00 0.01 0.00 57 1015.4
20260510062523 64 22 1.0 6.0 0.00 0.01 0.00 56 1015.3
20260510062023 64 0 2.0 6.0 0.00 0.01 0.00 55 1015.2
20260510061538 64 52 0.0 8.0 0.00 0.01 0.00 55 1015.4
20260510061023 64 26 2.0 8.0 0.00 0.01 0.00 55 1015.5
20260510060524 65 36 2.0 4.0 0.00 0.01 0.00 54 1015.4
20260510060041 65 9 1.0 5.0 0.00 0.01 0.00 54 1015.4
20260510055523 65 0 1.0 5.0 0.00 0.01 0.00 53 1015.3
20260510055024 65 40 0.0 2.0 0.00 0.01 0.00 53 1015.3
20260510054542 65 0 0.0 2.0 0.00 0.01 0.00 52 1015.4
20260510054023 66 66 0.0 1.0 0.00 0.01 0.00 52 1015.4
20260510053524 66 0 0.0 1.0 0.00 0.01 0.00 52 1015.4
20260510053036 66 0 0.0 2.0 0.00 0.01 0.00 52 1015.3
20260510052523 66 0 0.0 2.0 0.00 0.01 0.00 51 1015.3
20260510052023 66 69 0.0 2.0 0.00 0.01 0.00 51 1015.3
20260510051537 66 0 0.0 4.0 0.00 0.01 0.00 51 1015.0
20260510051024 66 0 0.0 4.0 0.00 0.01 0.00 51 1014.8
20260510050523 67 0 0.0 6.0 0.00 0.01 0.00 51 1014.6
20260510050035 67 36 1.0 8.0 0.00 0.01 0.00 50 1014.5
20260510045526 67 326 1.0 9.0 0.00 0.01 0.01 50 1014.4
20260510045024 67 38 2.0 9.0 0.00 0.01 0.01 50 1014.3
20260510044537 67 360 2.0 9.0 0.00 0.01 0.01 51 1014.4
20260510044023 67 15 3.0 10.0 0.00 0.01 0.01 50 1014.3
20260510043523 67 355 2.0 10.0 0.00 0.01 0.01 50 1014.1
20260510043037 67 360 3.0 10.0 0.00 0.01 0.01 50 1014.1
20260510042526 68 24 2.0 9.0 0.00 0.01 0.01 50 1014.0
20260510042024 68 0 1.0 10.0 0.00 0.01 0.01 50 1013.9
20260510041546 68 40 3.0 10.0 0.00 0.01 0.01 50 1013.9
20260510041023 68 22 2.0 7.0 0.00 0.01 0.01 50 1013.7
20260510040521 68 360 2.0 7.0 0.00 0.01 0.01 50 1013.5
20260510040035 68 14 1.0 5.0 0.00 0.01 0.01 51 1013.4
20260510035521 68 32 0.0 5.0 0.00 0.01 0.01 51 1013.3
20260510035024 68 0 0.0 5.0 0.00 0.01 0.01 52 1013.3
20260510034540 68 0 0.0 3.0 0.00 0.01 0.01 52 1013.1
20260510034025 68 0 0.0 3.0 0.00 0.01 0.01 53 1012.9
20260510033520 68 0 0.0 3.0 0.00 0.01 0.01 53 1012.9
20260510033039 68 43 0.0 3.0 0.00 0.01 0.01 52 1012.7
20260510032523 68 0 0.0 3.0 0.00 0.01 0.01 53 1012.6
20260510032024 68 0 0.0 3.0 0.00 0.01 0.01 53 1012.5
20260510031538 68 0 0.0 3.0 0.00 0.01 0.01 53 1012.5
20260510031023 68 0 0.0 0.0 0.00 0.01 0.01 54 1012.6
20260510030523 68 0 0.0 0.0 0.00 0.01 0.01 55 1012.4
20260510030036 68 0 0.0 3.0 0.00 0.01 0.01 55 1012.4
20260510025524 68 0 0.0 3.0 0.00 0.01 0.01 54 1012.2
20260510025024 68 0 0.0 2.0 0.00 0.01 0.01 54 1012.1
20260510024534 69 46 0.0 2.0 0.00 0.01 0.01 54 1011.9
20260510024023 69 0 0.0 5.0 0.00 0.01 0.01 53 1011.8
20260510023523 69 0 1.0 5.0 0.00 0.01 0.01 52 1011.7
20260510023035 70 34 1.0 5.0 0.00 0.01 0.01 50 1011.8
20260510022528 71 32 1.0 5.0 0.00 0.01 0.01 47 1012.1
20260510022023 71 26 1.0 6.0 0.00 0.01 0.01 46 1012.1
20260510021539 71 0 1.0 8.0 0.00 0.01 0.01 45 1012.3
20260510021023 71 0 2.0 8.0 0.00 0.01 0.01 44 1012.0
20260510020523 72 352 2.0 9.0 0.00 0.01 0.01 44 1011.7
20260510020036 72 16 2.0 9.0 0.00 0.01 0.01 44 1011.5
20260510015523 72 47 3.0 9.0 0.00 0.01 0.01 44 1011.4
20260510015020 72 20 1.0 8.0 0.00 0.01 0.01 44 1011.1
20260510014536 72 14 2.0 12.0 0.00 0.01 0.01 43 1011.1
20260510014025 73 24 3.0 13.0 0.00 0.01 0.01 43 1011.1
20260510013523 73 338 5.0 13.0 0.00 0.01 0.01 42 1010.8
20260510013041 73 28 5.0 13.0 0.00 0.01 0.01 42 1010.8
20260510012523 73 350 4.0 12.0 0.00 0.01 0.01 42 1010.7
20260510012023 73 360 3.0 11.0 0.00 0.01 0.01 43 1010.7
20260510011536 74 35 4.0 11.0 0.00 0.01 0.01 43 1010.7
20260510011021 74 5 3.0 11.0 0.00 0.01 0.01 43 1010.7
20260510010522 74 0 2.0 10.0 0.00 0.01 0.01 43 1010.6
20260510010036 74 360 2.0 12.0 0.00 0.01 0.01 43 1010.4
20260510005523 74 25 1.0 12.0 0.00 0.01 0.01 43 1010.3
20260510005022 74 335 2.0 12.0 0.00 0.01 0.01 43 1010.1
20260510004536 74 22 1.0 11.0 0.00 0.01 0.01 43 1010.0
20260510004022 75 0 2.0 11.0 0.00 0.01 0.01 42 1010.0
20260510003523 75 28 2.0 11.0 0.00 0.01 0.01 42 1010.0
20260510003051 75 46 3.0 9.0 0.00 0.01 0.01 42 1009.9
20260510002522 76 5 1.0 11.0 0.00 0.01 0.01 41 1009.8
20260510002023 76 348 2.0 11.0 0.00 0.01 0.01 42 1009.8
20260510001541 76 28 3.0 12.0 0.00 0.01 0.01 41 1009.7
20260510001024 76 31 3.0 18.0 0.00 0.01 0.01 41 1009.7
20260510000524 77 360 5.0 18.0 0.00 0.01 0.01 40 1009.6
20260510000039 77 348 5.0 16.0 0.00 0.01 0.01 39 1009.7
20260509235521 78 355 2.0 10.0 0.00 0.01 0.01 38 1009.6
20260509235109 78 292 2.0 9.0 0.00 0.01 0.01 38 1009.4
20260509234545 78 292 3.0 9.0 0.00 0.01 0.01 38 1009.3
20260509234030 78 297 2.0 6.0 0.00 0.01 0.01 38 1009.3
20260509233525 78 340 1.0 12.0 0.00 0.01 0.01 38 1009.3
20260509233040 78 320 3.0 12.0 0.00 0.01 0.01 37 1009.2
20260509232525 78 284 1.0 9.0 0.00 0.01 0.01 38 1009.2
20260509232027 78 51 2.0 9.0 0.00 0.01 0.01 38 1009.1
20260509231536 78 286 2.0 9.0 0.00 0.01 0.01 37 1009.1
20260509231026 79 300 1.0 7.0 0.00 0.01 0.01 37 1009.1
20260509230525 79 287 1.0 11.0 0.00 0.01 0.01 36 1008.9
20260509230036 79 302 1.0 11.0 0.00 0.01 0.01 37 1008.9